Helicity
29 26 33 26 30 26 31 32 30 28 27 29 20 20 20 24 27 38 49 67 52 43 40 40 42 43 43 43 42 41 38 39 38 37 38 47 53 56 54 66 70 69 63
33 31 37 37 36 34 38 39 40 37 35 36 35 37 35 34 37 40 45 61 63 51 46 48 47 46 47 46 41 44 46 44 38 35 36 40 55 58 60 56 61 70 70
34 32 37 37 42 43 39 38 39 36 37 41 37 41 40 35 41 40 46 49 75 61 57 58 57 58 58 54 53 53 51 48 36 26 22 32 52 67 73 64 63 60 61
50 50 50 45 53 40 44 46 59 58 56 53 51 51 48 44 43 42 55 62 68 68 73 73 72 68 69 68 66 63 62 53 35 20 17 26 51 72 81 87 87 79 69
58 52 54 57 55 52 55 67 61 67 60 58 54 57 55 58 51 55 60 63 75 93 76 99 86 76 77 77 70 65 62 59 48 30 19 25 44 79 73 74 78 68 55
58 60 70 75 67 61 57 58 58 63 64 62 54 53 56 64 73 74 77 77 90 98 91 95 111 90 87 84 78 75 70 66 55 42 28 31 51 83 100 99 85 78 59
78 79 74 65 61 60 64 64 63 55 56 64 47 51 54 62 72 83 90 98 104 107 110 115 123 119 122 103 96 86 85 76 59 45 36 44 64 96 112 113 107 112 92
88 84 80 77 74 68 61 61 59 58 53 49 50 40 48 74 82 71 78 91 92 111 118 122 127 134 149 162 139 116 99 82 71 56 45 62 87 103 126 116 107 101 98
83 91 100 92 80 69 67 69 63 57 59 64 60 73 74 116 103 68 59 70 84 106 118 126 133 141 149 167 192 165 125 108 98 73 66 70 83 103 131 115 115 118 123
105 94 84 77 59 57 55 63 69 66 66 65 75 64 74 97 119 113 121 106 95 104 120 148 157 166 165 188 191 204 213 153 112 83 80 79 95 115 132 125 147 124 123
130 105 78 64 60 45 61 59 62 70 72 74 78 85 94 98 109 146 121 107 158 148 121 141 172 193 181 194 228 220 182 158 134 117 105 99 105 106 117 112 96 95 97
104 97 70 74 54 64 61 62 64 56 60 69 90 95 106 128 144 160 170 147 142 145 153 191 203 195 193 231 238 212 243 199 169 152 140 123 117 108 121 105 103 98 101
128 115 88 77 70 57 44 42 44 48 57 72 89 117 142 155 157 166 189 208 207 192 194 184 243 222 186 204 222 203 236 212 186 169 155 139 127 123 142 131 112 90 109
105 82 84 79 66 56 56 60 64 76 86 96 98 108 118 118 128 159 180 179 196 203 206 201 218 256 262 250 250 246 279 227 200 198 172 181 137 112 139 127 102 108 133
103 105 97 89 88 92 96 100 95 106 113 113 105 107 115 127 134 145 160 176 197 218 204 168 176 197 253 336 288 316 246 238 197 226 186 189 163 127 131 128 123 110 134
134 113 100 92 81 78 88 101 108 111 106 103 103 107 109 121 129 144 153 162 188 209 211 198 197 182 158 312 325 271 281 273 226 209 184 196 162 161 142 133 137 134 142
114 98 81 66 77 97 111 108 105 99 109 106 106 115 118 110 123 126 132 145 174 188 224 145 173 170 174 230 312 317 294 371 310 229 222 165 181 171 191 134 108 119 132
109 100 93 95 110 126 124 122 119 120 108 99 95 99 97 102 95 92 111 111 123 145 170 150 127 156 176 229 246 294 355 403 323 345 180 203 187 188 202 163 83 124 165
123 114 116 135 133 117 103 89 96 79 74 77 83 93 92 95 100 103 111 119 128 144 162 167 164 180 185 222 267 343 364 389 383 300 262 202 209 232 184 79 59 151 231
133 140 134 113 96 85 75 104 96 95 101 101 97 91 80 87 96 115 114 115 131 152 172 188 205 178 176 195 267 220 308 373 328 357 280 260 243 176 112 35 64 253 291
135 117 101 87 86 82 95 112 112 110 105 102 95 86 86 76 65 70 99 108 133 155 178 202 215 210 185 195 327 251 203 309 441 509 247 216 169 123 72 82 230 331 247
106 89 93 92 88 79 111 119 113 99 85 83 76 71 61 48 50 38 47 65 132 189 197 217 216 199 171 152 214 240 244 412 635 393 330 176 104 79 103 163 129 105 100
96 98 86 82 90 105 131 122 114 79 68 62 58 54 67 81 69 67 92 109 116 86 101 139 163 149 147 70 140 293 457 547 440 296 265 160 110 87 138 141 186 191 170
101 91 97 109 111 99 91 87 70 56 58 56 60 57 69 61 71 99 121 139 141 138 94 117 80 78 111 111 320 474 401 353 262 166 106 139 126 186 221 202 212 211 175
97 103 101 96 83 70 58 53 60 51 52 60 62 67 86 74 71 77 111 96 104 100 184 215 208 231 239 220 234 299 217 126 128 112 104 95 127 245 276 233 158 117 109
82 78 73 58 39 38 33 65 86 78 70 74 63 69 50 67 58 72 124 66 122 151 204 201 166 175 162 177 193 66 66 92 122 90 90 120 143 182 180 201 173 146 155
Wind_Speed
23 24 27 29 30 31 34 35 36 38 38 39 37 37 37 37 36 36 36 33 35 35 36 39 41 41 41 42 42 44 47 51 54 55 56 57 58 60 60 62 63 64 64
22 23 26 28 30 33 35 37 39 41 41 40 41 40 40 39 38 36 35 32 32 31 34 37 40 40 40 40 41 42 46 50 54 56 57 59 62 62 61 60 61 63 63
21 23 24 27 29 32 36 37 38 39 40 41 40 39 37 37 35 33 32 34 32 30 32 37 39 40 39 39 40 43 47 51 54 56 58 61 64 66 67 64 63 62 61
24 26 28 29 31 33 38 39 42 44 42 41 41 41 40 37 35 34 35 33 33 35 31 33 36 38 38 39 40 44 48 50 53 57 59 62 64 67 66 68 68 67 65
24 28 30 31 32 35 37 40 41 40 42 42 42 43 40 38 37 35 34 34 34 36 37 32 36 37 38 40 42 45 48 52 55 58 61 63 65 67 69 72 73 73 69
25 29 32 35 37 38 39 38 39 40 41 44 47 48 43 38 37 37 38 38 36 36 36 37 37 38 36 40 43 45 49 52 56 60 64 65 67 68 70 73 74 74 70
27 30 33 35 36 39 41 42 43 45 46 46 52 52 50 40 39 40 40 41 41 39 39 39 39 40 39 39 42 45 48 52 56 59 63 67 69 70 71 72 73 69 64
27 30 34 37 40 42 43 43 45 48 48 46 52 57 55 54 42 43 44 45 45 43 42 42 42 43 45 46 46 44 50 54 57 60 64 67 69 70 70 68 66 64 58
29 33 36 40 43 45 46 47 47 48 51 52 48 52 57 56 70 51 48 47 48 48 47 46 45 46 48 48 49 50 49 51 54 60 64 68 70 69 67 63 56 53 50
33 36 38 40 42 45 47 47 47 48 50 53 54 47 48 56 62 69 52 53 53 52 53 52 52 51 51 51 51 52 53 52 56 58 61 66 68 65 61 54 47 46 47
36 39 41 42 44 46 46 46 48 49 49 53 55 58 58 56 56 62 77 70 64 57 55 55 56 57 54 53 54 55 53 54 55 57 62 65 66 63 58 52 43 46 45
36 41 41 43 46 47 48 49 51 51 53 54 55 56 59 62 65 68 74 76 77 71 68 63 61 61 62 60 58 58 57 55 56 57 59 62 62 61 59 54 45 40 43
37 42 43 45 47 48 50 51 52 53 56 58 60 61 60 62 64 69 75 82 86 83 79 72 68 67 66 63 63 60 57 56 55 55 58 59 60 60 61 49 43 40 40
38 41 43 44 47 50 53 55 57 57 59 62 65 66 66 66 66 68 72 80 92 89 82 79 71 68 64 61 60 58 56 53 52 53 54 56 58 59 56 49 48 43 37
36 41 44 48 52 54 57 60 62 65 67 68 69 70 71 71 71 71 71 72 79 98 98 87 86 74 71 63 60 56 58 56 51 54 56 58 60 61 57 50 46 37 36
38 42 46 50 55 59 62 66 67 69 72 72 72 74 73 73 75 75 76 76 76 84 102 88 88 84 80 71 67 63 59 56 53 53 56 56 58 58 54 47 42 35 36
41 46 50 54 59 63 67 70 72 72 75 76 76 77 78 78 78 77 77 76 76 75 89 100 89 87 88 77 71 66 65 61 59 56 55 55 55 54 51 48 43 36 35
45 50 56 60 65 68 71 73 75 76 78 79 79 79 80 79 81 79 77 78 78 75 82 102 98 94 91 84 80 76 71 65 59 57 55 53 53 51 50 48 42 33 29
50 55 60 65 69 71 73 73 76 78 78 78 78 80 82 83 84 84 85 87 86 86 85 93 109 95 95 85 82 75 67 63 62 54 53 49 48 45 42 42 32 20 20
55 60 64 67 69 71 73 74 80 81 80 79 79 80 81 82 86 91 95 94 94 97 95 98 102 105 95 89 75 80 69 62 64 53 53 45 42 40 42 47 36 14 11
58 62 65 67 70 72 70 78 81 81 81 82 81 81 82 85 88 86 88 92 92 99 102 104 106 102 99 88 78 67 69 60 52 43 37 37 36 40 38 35 16 6 4
61 64 67 70 72 71 74 77 80 82 81 82 83 86 84 85 86 89 87 88 83 98 103 101 100 97 89 83 68 63 49 45 43 30 30 36 38 38 28 20 9 7 11
64 67 69 72 75 75 74 79 83 81 80 81 86 87 88 85 87 91 89 86 85 82 78 82 82 79 73 69 54 46 32 42 45 23 24 31 33 34 28 12 6 4 7
66 69 72 74 75 73 76 80 83 82 82 81 82 83 85 92 89 91 92 88 84 80 73 67 68 66 61 54 38 42 36 31 22 18 18 29 29 25 16 10 10 10 10
70 71 72 73 74 75 77 78 82 83 83 83 81 79 82 91 89 91 87 88 91 73 56 48 46 46 45 40 36 32 22 12 24 26 26 22 17 16 17 14 14 12 12
69 71 71 70 72 74 74 76 80 83 88 89 83 82 82 86 87 97 79 83 77 59 46 46 49 46 43 38 34 22 16 18 24 24 17 20 8 10 16 19 15 16 14
Wind_Direction
36 36 20 17 11 14 3 0 359 352 350 347 355 354 355 355 355 355 356 2 360 360 359 359 358 359 359 359 0 360 358 356 355 354 353 352 350 346 341 336 332 328 324
32 23 17 12 8 2 357 352 345 342 341 344 342 346 346 348 350 351 353 358 1 360 357 354 353 354 354 355 355 356 354 352 351 350 349 349 348 346 343 341 335 330 327
27 17 16 11 4 358 351 349 346 345 344 344 346 348 348 348 349 351 351 349 353 353 349 347 347 348 349 349 350 349 347 347 346 346 345 343 342 342 340 338 335 332 329
2 4 360 358 352 350 343 341 338 336 341 344 344 343 342 344 345 343 342 343 343 342 345 343 343 344 345 345 344 343 343 343 343 342 342 341 340 339 339 337 334 331 328
357 352 352 352 349 345 342 340 341 344 342 343 342 340 341 340 340 339 338 337 336 336 335 338 336 336 337 337 337 337 338 338 338 338 338 337 337 337 334 332 330 328 326
348 347 348 347 344 341 341 344 344 344 343 340 337 335 336 336 335 334 332 331 330 329 328 327 330 329 328 329 330 331 332 333 333 333 333 334 333 333 333 332 330 328 327
345 346 348 348 347 344 342 341 339 338 338 339 334 333 333 334 334 332 331 329 326 325 324 323 323 324 324 323 324 325 327 328 329 330 331 331 331 330 331 331 331 333 334
347 347 345 344 342 339 339 338 337 334 335 339 334 331 332 333 336 337 333 331 328 326 324 321 319 319 319 319 320 320 322 323 325 326 328 329 330 329 329 330 331 331 333
343 341 340 338 337 337 335 334 335 335 332 333 338 333 331 329 327 332 331 330 327 325 321 319 317 316 315 315 316 317 317 319 321 322 324 325 327 327 328 328 332 335 336
341 339 338 337 337 336 335 334 335 334 332 330 331 333 330 326 326 323 329 327 324 322 321 318 316 314 313 312 311 312 315 315 316 318 320 322 324 325 327 327 330 334 335
337 337 336 335 334 334 333 333 332 331 331 328 327 326 325 324 323 319 317 320 322 320 318 316 315 313 310 308 308 308 308 309 310 313 316 319 321 323 323 323 318 321 325
336 337 337 337 336 336 335 334 332 332 329 328 326 324 322 321 320 317 314 314 313 314 313 313 311 310 308 306 304 304 304 305 307 309 312 316 319 320 320 318 317 317 322
332 334 336 337 337 337 337 336 335 333 330 328 326 323 321 318 316 315 313 312 310 311 311 310 308 307 306 305 304 303 301 302 304 307 310 313 316 316 316 317 316 314 317
333 336 338 340 340 340 339 338 336 334 332 329 326 324 322 320 319 316 313 313 311 310 309 308 309 307 306 306 305 304 303 302 301 304 306 310 312 313 313 309 310 310 313
336 338 338 338 339 339 338 336 333 331 330 328 326 325 323 322 321 318 316 314 311 310 309 311 309 309 306 302 303 302 301 300 299 302 302 305 307 308 306 304 307 306 311
338 337 337 337 336 336 335 333 331 330 328 328 327 325 324 323 321 320 318 315 312 309 307 311 310 310 309 304 303 301 300 299 295 299 299 301 304 305 303 300 301 298 305
335 334 334 334 334 333 333 331 330 330 329 328 327 326 324 323 321 320 319 316 313 310 307 308 309 308 305 302 301 296 296 296 294 295 295 297 301 302 302 296 296 292 299
333 332 332 331 331 331 331 330 329 329 328 327 327 326 325 325 323 322 320 319 316 313 309 307 309 308 304 302 299 294 294 294 291 296 292 298 300 302 301 298 292 287 292
331 330 330 330 330 330 329 330 329 328 328 328 328 327 326 325 324 323 321 319 316 314 312 309 307 308 305 305 301 297 292 287 289 290 291 295 299 306 305 303 301 276 290
328 328 329 329 329 329 329 329 329 328 328 328 328 327 327 327 326 324 321 320 318 315 313 310 307 307 307 306 298 297 293 287 284 285 290 296 301 303 302 301 296 272 274
327 327 328 328 328 329 329 329 329 329 328 327 328 329 328 327 326 326 325 323 321 318 314 311 308 308 307 307 299 299 294 290 289 290 293 296 300 303 304 307 317 289 295
326 327 328 328 328 328 329 329 329 328 328 328 328 328 329 329 329 328 326 324 320 317 313 312 309 307 306 306 300 300 288 289 288 285 285 293 305 305 306 309 312 306 327
326 327 327 327 327 328 329 329 329 330 329 329 327 328 329 331 331 331 329 327 326 324 317 314 309 307 304 305 301 298 288 287 294 292 291 299 311 309 314 319 318 329 324
326 326 327 327 327 328 328 329 329 330 329 330 330 330 330 331 332 332 331 329 329 326 326 323 317 313 316 312 306 297 303 304 318 314 315 311 318 334 340 3 19 13 17
325 326 327 328 328 328 329 330 330 330 330 330 331 331 330 330 330 332 331 332 332 333 340 347 348 339 338 334 327 320 312 316 307 308 317 328 339 346 336 349 360 3 355
325 326 327 329 329 328 330 331 332 331 328 328 329 329 329 329 329 328 331 333 336 344 350 348 342 342 341 338 330 353 353 321 317 327 321 330 354 348 331 328 340 331 336